Theta_e
355 354 354 351 350 350 350 350 350 349 347 344 344 345 344 343 345 349 351 348 347 346 344 344 344 344 342 337 335 332 331 332 331 331 331 330 330 330 330 330 330 330 330 330 330 330 330 330 331 331 331 331 331 332 332 332 332 331 331 331 330 329 328 327 327 327 326 326 327 326 327 328 328 328
354 355 355 354 351 351 351 350 352 351 346 338 339 345 344 340 338 342 346 347 346 347 344 343 344 345 344 341 337 337 337 333 330 331 331 331 331 331 330 330 329 329 330 330 330 330 330 329 330 330 330 330 331 330 331 332 332 332 333 332 332 331 329 329 328 327 327 327 327 327 327 327 328 328
352 353 354 354 354 354 353 352 353 354 351 344 344 349 348 342 338 338 340 343 343 345 346 345 345 344 343 342 342 343 344 339 332 330 331 331 331 331 331 330 330 330 329 330 330 329 329 329 329 329 329 329 329 329 329 330 331 331 332 332 332 332 332 331 329 329 328 327 327 328 327 327 328 328
351 351 349 350 352 353 351 350 350 354 354 348 346 351 350 345 342 339 339 340 338 339 341 342 342 345 345 345 344 342 339 337 334 332 332 332 332 333 332 332 332 332 332 332 333 332 333 332 332 331 331 330 330 329 329 329 329 329 330 331 331 332 333 332 332 331 329 328 328 328 328 328 327 328
350 350 346 345 347 349 349 347 349 354 354 349 347 349 350 350 350 349 346 343 341 340 339 339 340 343 344 344 343 339 336 335 335 335 334 334 334 334 334 334 334 334 334 334 335 335 335 336 336 336 336 336 335 335 333 333 332 331 331 331 331 331 332 333 333 333 331 330 328 328 327 328 328 328
343 345 343 342 343 345 346 345 349 354 355 353 353 352 353 355 356 355 352 348 344 343 343 344 344 346 347 346 342 338 335 333 333 333 333 333 333 333 333 333 333 333 333 334 333 334 335 335 335 336 336 337 337 337 338 337 337 336 335 335 334 333 333 333 333 334 334 333 331 330 328 328 327 328
336 338 339 340 343 346 348 347 347 352 354 354 355 355 355 357 357 357 356 352 346 342 340 342 344 346 348 348 343 337 334 332 331 332 332 332 332 332 332 333 334 334 335 336 336 336 337 337 336 336 336 336 337 337 337 338 338 339 339 339 338 337 336 335 334 334 334 335 334 332 331 329 328 327
336 336 339 343 346 349 351 350 346 348 353 353 354 354 354 353 352 351 352 351 346 341 337 335 335 337 337 336 335 333 332 331 332 332 332 332 332 332 333 335 337 339 340 341 342 342 342 341 342 342 341 340 339 339 338 338 337 338 338 338 339 339 339 338 336 335 334 335 335 334 334 331 329 328
339 339 342 345 348 351 351 349 347 349 353 354 353 353 354 354 351 345 342 342 340 337 337 334 332 333 332 331 330 330 333 336 336 334 333 336 336 334 335 338 342 347 349 350 350 350 349 348 348 348 347 346 345 344 342 342 341 339 339 338 338 338 338 339 339 338 336 335 334 335 335 334 333 331
339 338 339 344 349 352 353 352 352 354 354 353 353 351 350 351 351 345 337 334 336 339 339 338 337 335 337 340 338 336 341 345 345 342 340 339 338 342 346 349 351 354 356 355 355 353 352 352 352 351 350 349 347 346 347 347 346 346 345 344 342 340 339 339 339 339 338 337 335 334 335 335 335 334
343 342 340 341 345 347 349 350 351 354 353 351 349 348 343 341 342 342 341 344 348 348 348 349 349 347 349 352 349 345 347 350 351 352 351 349 348 351 355 355 354 355 356 356 354 354 352 351 350 349 350 348 347 347 349 350 351 350 349 349 348 347 346 345 343 342 341 340 339 337 335 334 335 335
344 348 347 347 349 348 348 344 343 349 354 352 348 344 340 338 340 341 345 349 352 352 352 354 354 353 352 350 348 348 352 355 356 356 356 356 355 355 356 356 356 355 355 355 356 355 354 352 351 351 350 349 348 348 350 351 352 352 352 353 352 352 351 349 348 347 346 345 343 341 338 336 335 335
344 346 348 351 352 351 351 349 343 340 345 347 347 347 343 340 339 339 341 344 346 349 350 351 352 355 355 353 353 354 357 358 357 356 356 356 356 356 357 357 356 356 356 356 356 355 354 354 355 355 354 352 351 350 350 348 345 344 346 349 351 353 353 353 352 351 350 348 347 345 342 339 336 335
347 346 344 347 349 349 351 351 344 334 331 333 336 340 341 337 335 335 337 339 342 346 348 350 354 357 357 356 356 357 357 357 356 356 356 356 357 357 358 357 357 356 356 357 357 355 355 355 356 355 355 355 353 350 348 345 339 337 339 341 342 345 348 349 352 353 353 351 349 348 346 343 340 337
343 344 345 346 349 349 349 344 336 331 330 330 330 331 332 332 331 331 332 334 338 342 345 349 354 357 357 357 358 358 358 357 356 357 357 358 358 358 357 358 358 356 356 357 357 356 356 356 356 356 355 354 351 345 341 339 337 337 340 341 338 336 337 338 341 346 351 353 352 349 347 347 344 341
334 336 340 345 349 351 350 341 331 328 329 329 329 330 330 330 330 330 330 330 332 334 336 338 343 348 351 355 356 357 357 358 358 358 358 359 359 358 358 358 358 357 356 356 357 356 355 356 356 355 354 353 349 342 336 334 332 333 337 340 338 336 336 337 336 337 342 347 352 352 349 347 347 345
333 328 330 337 342 347 350 344 334 329 328 328 328 329 329 329 329 329 329 329 330 331 332 333 334 337 341 345 347 349 352 356 358 358 358 359 359 358 358 357 357 357 356 356 356 355 354 355 355 355 354 352 350 346 342 337 333 331 333 337 336 336 336 338 338 338 338 340 345 350 351 348 347 346
340 333 328 329 331 334 338 338 331 328 328 328 327 328 328 328 329 329 329 330 331 331 332 333 334 335 337 340 342 345 351 356 358 358 358 359 358 357 357 356 356 356 355 355 356 355 354 355 355 355 354 353 353 351 348 344 339 338 338 338 338 337 337 338 340 341 340 339 340 344 348 350 348 346
344 337 332 329 328 328 329 330 329 328 329 329 329 328 328 327 327 328 328 328 330 333 335 337 338 338 341 343 347 350 355 358 358 358 358 358 357 357 356 356 355 355 356 356 356 356 355 354 354 354 353 353 352 350 347 344 343 345 347 345 342 340 340 342 343 343 342 342 340 340 343 346 348 347
337 334 332 329 327 327 327 327 327 327 329 330 331 331 330 330 333 337 339 338 336 338 341 342 342 345 347 349 351 354 357 358 358 357 357 357 356 356 356 355 355 355 356 355 354 355 354 352 352 350 349 350 350 345 344 345 344 345 346 345 344 343 344 345 345 344 343 343 343 343 343 343 344 345
331 330 330 330 329 327 326 326 326 327 328 328 329 331 330 330 335 341 346 349 348 347 348 349 351 353 353 353 354 356 356 357 358 357 357 356 355 355 355 355 355 355 353 351 351 352 352 351 351 347 343 343 344 343 343 344 343 343 343 345 345 346 345 345 345 345 344 344 345 345 345 344 342 342
331 330 329 328 328 327 326 326 326 326 327 327 327 329 330 333 337 341 346 352 354 355 355 355 356 357 357 357 357 357 357 358 358 357 355 354 354 355 355 355 355 354 351 349 350 350 349 349 348 345 339 332 331 338 341 341 341 341 342 342 343 343 344 344 344 344 344 344 344 346 345 345 344 343
331 331 330 328 328 326 326 326 326 326 326 327 329 330 332 336 341 346 351 355 357 358 359 360 359 359 360 360 358 357 359 359 358 356 354 353 354 355 355 353 350 349 349 350 349 346 344 342 339 339 340 336 328 330 335 337 337 337 338 340 342 343 343 344 344 344 344 344 344 346 346 345 344 344
333 331 330 329 327 327 327 327 326 327 327 328 330 333 335 340 344 349 354 356 357 358 359 360 360 359 359 359 359 359 358 357 356 355 354 354 355 354 350 343 339 341 346 348 346 340 335 333 331 334 339 341 338 332 330 330 332 335 340 342 343 343 343 343 344 344 343 343 343 343 344 344 343 344
337 337 334 331 328 327 327 327 327 327 329 330 332 334 336 338 341 345 349 352 355 356 357 358 357 355 355 357 359 359 357 356 355 354 353 352 350 344 339 335 334 337 340 341 336 330 326 328 330 330 332 333 334 334 332 330 333 337 341 341 341 342 342 342 342 342 343 342 342 341 342 342 342 343
341 343 343 341 338 333 329 329 329 330 332 332 333 334 335 336 338 340 344 348 350 353 354 354 355 355 356 358 358 356 355 354 353 351 350 348 345 338 334 334 333 331 331 330 328 326 325 325 326 326 326 328 330 333 335 336 336 337 339 338 339 340 339 339 339 339 340 341 340 339 339 339 340 342
348 350 352 351 348 344 341 337 334 336 337 335 335 335 337 340 341 342 345 347 350 352 354 355 356 357 358 358 357 354 353 352 348 344 340 337 335 332 331 331 329 327 327 327 326 324 324 323 323 325 328 331 333 335 337 338 337 336 336 337 337 336 336 337 337 337 337 339 339 339 339 339 339 340
355 357 358 356 354 354 352 347 342 341 343 341 340 341 342 343 344 346 348 350 352 355 356 357 357 358 358 357 355 352 350 347 340 333 330 328 328 328 328 328 327 326 326 325 324 323 324 325 326 327 327 329 332 334 336 336 335 335 335 335 335 335 336 337 337 338 338 338 339 339 340 340 340 340
358 360 359 358 358 358 357 355 351 349 348 347 347 347 347 348 349 350 351 353 355 356 357 357 358 357 355 353 351 350 347 338 330 327 328 327 328 327 327 327 326 325 324 323 323 325 326 326 326 326 326 327 329 331 333 334 333 333 334 335 335 336 337 337 338 339 339 339 340 340 340 341 341 341
358 358 358 358 358 358 358 358 356 353 351 351 351 351 351 351 352 353 354 355 356 357 357 357 355 353 351 350 350 346 338 330 328 328 327 327 327 327 326 326 324 323 322 323 324 325 325 325 326 326 326 328 328 329 331 332 332 333 334 335 335 335 336 337 338 338 339 340 340 340 340 341 341 340
358 358 358 357 356 356 357 357 356 354 353 352 352 352 353 353 354 356 357 357 357 357 356 354 352 351 351 349 344 336 329 327 328 327 327 327 326 326 326 324 322 322 322 324 327 328 327 326 326 325 325 326 326 325 327 330 332 333 333 333 332 332 331 332 334 336 337 339 339 339 339 340 340 340
359 358 358 358 357 356 355 355 355 354 353 353 353 353 354 355 356 357 358 357 358 357 355 353 352 350 347 341 335 329 328 328 328 326 327 327 325 324 322 320 323 327 326 325 329 330 328 326 325 323 324 324 324 324 327 330 332 332 331 330 328 326 324 324 326 327 330 332 333 335 336 338 339 338
360 359 359 359 358 357 356 356 355 354 354 354 354 354 355 356 356 357 358 358 358 357 356 353 350 347 345 341 337 333 330 327 326 326 326 324 322 321 320 323 330 331 326 325 328 328 325 324 324 324 323 322 322 326 329 330 330 329 328 327 325 322 319 319 320 321 322 323 325 327 329 332 335 335
360 360 359 359 358 357 357 356 355 356 355 355 354 355 355 356 356 356 357 357 355 354 351 346 341 339 340 338 335 331 328 326 327 329 327 323 321 321 323 328 332 328 324 326 329 325 321 323 326 325 321 319 321 326 328 328 327 326 326 325 322 319 318 318 319 319 320 321 321 323 325 327 330 333
360 359 358 358 358 357 356 356 356 356 356 355 355 354 354 354 354 355 355 353 351 347 341 334 330 332 333 333 332 332 329 327 328 330 329 326 324 323 323 326 325 321 323 327 327 324 323 327 328 326 321 320 324 327 327 326 324 324 324 323 320 317 317 317 318 319 320 320 320 321 323 324 327 330
360 358 358 359 358 357 357 357 357 357 357 355 354 352 352 352 352 350 349 349 347 341 333 328 329 332 332 330 330 330 329 327 328 329 327 326 324 321 321 323 321 320 323 325 325 327 329 329 329 326 324 324 326 327 326 325 322 322 323 321 318 316 316 317 317 318 319 319 319 319 320 322 325 327
358 358 358 359 358 358 357 357 357 357 357 355 352 350 350 349 347 348 349 348 346 343 336 330 329 331 330 328 327 327 327 327 327 326 326 328 327 323 321 322 322 321 324 326 328 329 329 329 328 326 324 324 326 326 325 324 323 322 322 320 318 316 315 315 316 316 317 318 318 317 318 321 323 325
357 358 359 359 358 358 358 356 356 357 356 355 354 352 352 351 350 351 350 344 340 340 337 330 328 328 327 327 328 327 326 327 327 327 328 330 329 325 322 322 321 322 325 328 329 328 328 328 327 325 323 324 324 324 323 323 322 322 320 319 317 315 314 314 314 314 315 316 316 316 317 318 321 324
358 358 359 359 358 358 358 357 356 355 355 354 352 349 349 349 348 344 337 331 330 331 329 328 329 330 328 327 327 327 327 327 327 328 330 329 328 328 325 322 321 322 325 328 328 327 327 327 325 323 322 323 323 322 322 322 321 321 319 318 317 315 314 314 313 313 314 315 316 316 317 317 319 321
358 359 359 359 358 358 357 355 354 354 352 350 345 342 342 340 335 328 325 326 327 327 327 330 332 330 328 327 327 327 329 329 327 328 330 329 328 328 326 323 323 325 327 328 327 326 326 326 324 322 322 322 322 321 321 321 320 319 318 317 316 315 314 314 313 313 313 314 315 316 317 317 318 320
359 358 359 359 357 356 354 352 351 350 347 342 338 336 335 331 326 324 325 327 326 325 328 332 331 328 328 329 328 327 329 330 329 329 329 328 328 328 326 324 325 326 326 327 327 326 325 324 323 322 321 321 321 320 320 320 319 318 318 317 316 315 315 314 314 314 313 314 315 316 316 316 317 318
357 356 356 355 353 352 351 349 346 343 340 336 333 331 329 327 326 327 327 327 325 325 329 332 330 327 329 330 329 328 328 329 329 328 328 328 328 327 326 326 326 325 325 326 326 325 324 324 323 322 322 321 321 320 320 320 319 318 317 317 316 315 315 314 314 314 314 314 315 316 316 316 317 317
353 351 348 344 342 342 343 341 338 335 332 330 328 327 326 327 327 327 326 327 326 326 329 331 330 329 329 329 329 328 329 329 328 327 328 327 327 326 326 326 325 324 324 324 324 324 324 324 323 322 322 321 321 320 319 319 319 318 318 317 316 316 315 315 315 315 314 314 315 315 316 316 316 316
346 343 339 336 335 335 334 332 330 328 329 329 329 329 329 327 326 326 328 330 329 328 329 330 329 328 329 329 328 328 328 328 327 327 327 326 326 326 326 325 325 324 324 324 324 324 324 323 323 322 322 322 321 320 319 319 319 318 318 317 316 316 315 315 315 315 314 314 314 315 316 316 316 316
339 337 336 336 335 332 329 328 328 328 329 330 330 330 330 330 329 328 330 331 330 330 329 329 328 328 328 328 327 327 327 327 326 326 326 326 326 325 325 325 324 324 324 324 323 323 323 323 323 322 322 321 321 320 319 319 318 318 318 317 317 316 316 315 316 315 315 314 314 314 315 316 316 316
Wind_Speed
8 7 7 7 6 6 7 6 5 6 7 6 5 5 5 5 5 4 4 4 4 4 4 5 8 10 12 12 9 9 10 9 11 14 15 16 17 17 17 17 18 19 20 20 20 21 21 21 22 22 22 22 22 22 22 22 22 22 21 21 21 21 21 21 22 22 22 21 21 21 21 20 19 17
8 8 8 8 7 7 7 6 6 7 9 7 5 6 6 7 7 6 7 6 5 5 5 4 6 9 12 11 10 11 13 14 15 16 18 20 21 21 21 21 21 21 22 22 23 24 24 24 24 24 24 25 25 25 25 25 25 25 24 24 23 23 23 23 23 22 23 22 22 22 21 21 20 19
9 9 10 9 9 8 8 7 7 8 9 7 5 6 7 8 8 8 9 9 5 4 5 6 6 9 13 13 11 11 13 17 19 19 20 23 23 23 25 26 26 25 25 25 26 26 26 27 27 27 27 27 27 28 28 28 28 28 27 27 26 26 25 25 24 24 24 23 23 23 22 22 21 20
10 11 11 10 10 10 9 9 8 9 10 9 7 8 9 9 10 9 10 11 10 7 8 10 10 10 12 13 14 16 16 18 21 21 21 22 22 24 26 27 28 27 27 27 28 28 28 29 29 29 29 29 30 30 30 31 31 30 30 30 29 29 28 27 27 26 26 25 25 24 24 23 22 22
12 12 12 11 11 11 10 10 10 9 10 11 9 9 10 10 10 11 12 13 14 12 11 12 13 12 13 14 16 18 19 19 21 22 22 22 23 24 25 27 28 27 27 27 27 27 27 28 28 29 30 30 31 32 32 33 33 33 33 32 32 31 31 31 30 29 28 27 27 26 26 25 24 23
13 13 12 11 11 12 12 12 11 10 10 11 11 11 11 11 11 11 13 14 15 16 15 15 15 15 15 16 17 20 21 22 22 23 24 25 25 26 26 27 28 29 29 29 28 27 27 27 27 28 29 30 31 32 33 33 34 34 34 34 34 34 33 33 33 32 32 30 29 29 28 27 26 25
13 13 13 13 13 13 13 13 12 11 11 11 12 12 12 12 12 12 14 16 17 18 17 16 17 16 16 18 20 23 24 25 26 27 27 27 28 29 29 29 30 30 30 30 30 29 28 27 28 28 29 30 32 33 33 34 34 34 35 35 35 36 36 36 35 35 35 34 32 31 30 29 28 27
14 13 14 14 14 13 14 14 14 13 13 13 13 13 14 14 15 14 15 17 18 20 20 20 20 20 21 22 24 25 27 28 28 29 29 29 29 29 28 28 28 29 29 30 29 29 28 27 27 26 28 29 31 32 34 34 35 35 36 36 36 36 37 37 37 37 37 37 35 34 33 32 30 29
15 14 15 15 14 14 15 15 15 14 14 14 14 14 14 15 16 16 17 17 19 21 22 23 23 24 25 26 27 27 27 26 26 28 29 29 29 28 27 26 24 24 26 26 26 27 29 30 29 28 28 28 29 31 32 33 34 35 36 36 37 37 37 38 38 38 38 38 38 37 36 34 33 31
17 16 16 16 16 16 16 16 15 15 15 15 15 15 15 15 16 17 18 19 20 20 21 23 24 25 25 25 27 28 26 24 25 26 28 28 27 24 21 20 19 18 19 20 21 25 29 31 32 33 33 32 32 31 31 31 32 33 35 35 36 36 37 37 38 38 38 38 38 38 38 37 35 33
18 18 18 18 18 18 18 17 17 16 16 16 16 16 15 15 16 17 18 18 18 18 19 20 21 22 22 22 24 26 26 25 21 19 20 22 21 18 16 17 18 17 18 20 20 23 28 31 33 34 35 36 36 33 30 28 27 28 29 32 33 35 36 37 37 38 38 38 38 38 38 38 37 36
19 18 18 18 19 19 19 19 18 17 17 17 16 17 16 16 17 17 17 17 18 18 19 20 20 21 22 24 25 25 24 22 19 17 18 20 20 19 18 19 21 23 25 25 20 19 24 28 31 33 34 34 33 32 30 28 26 24 23 23 25 27 29 32 34 36 37 37 37 37 37 38 38 38
20 20 19 19 19 19 19 20 19 18 17 17 17 17 17 18 18 19 19 20 20 20 21 22 21 21 22 22 22 21 20 20 21 21 22 23 24 23 22 22 23 26 27 24 20 19 21 23 24 26 29 29 27 27 27 26 27 28 25 22 21 20 22 25 28 31 33 35 36 36 36 36 37 38
20 21 20 20 19 20 21 22 22 19 18 18 18 18 19 20 20 21 22 22 22 22 24 24 22 20 20 20 19 19 19 20 21 22 24 24 24 24 25 26 26 28 27 24 24 25 25 23 22 22 22 23 23 24 24 25 29 32 30 28 25 23 22 22 24 26 28 30 32 34 35 35 35 36
23 22 22 21 20 21 23 25 24 22 20 20 20 20 20 21 22 23 24 25 25 25 26 26 23 22 22 21 19 19 19 20 21 22 23 23 23 25 28 29 29 31 31 28 30 34 31 25 23 23 20 21 23 26 27 29 31 34 34 33 32 30 27 25 24 25 26 27 28 29 32 34 34 35
27 25 24 22 20 20 22 24 24 23 22 22 21 22 22 22 23 24 25 27 27 28 30 31 30 28 26 25 23 21 20 20 21 23 24 24 25 26 26 28 30 31 32 33 35 38 32 22 21 22 20 20 24 28 31 32 34 35 35 35 35 33 31 28 25 24 25 25 26 27 28 31 32 33
28 28 26 25 23 22 22 24 25 24 23 23 23 23 24 24 25 25 27 28 29 30 32 34 35 34 32 31 30 26 23 21 21 23 25 24 25 26 27 30 32 31 32 33 33 35 30 21 19 21 20 22 26 29 31 33 34 33 32 31 32 32 31 29 27 26 26 25 25 25 25 26 28 31
26 27 27 27 27 26 25 26 27 27 26 26 26 26 26 26 26 27 28 28 29 30 31 33 34 34 33 32 32 28 24 23 23 24 25 26 28 30 31 31 32 31 29 25 25 30 30 23 21 24 23 23 25 25 28 33 34 31 28 28 31 32 31 30 28 28 29 27 25 24 24 24 24 26
27 27 28 28 28 28 28 28 28 28 28 27 27 28 28 28 28 29 29 29 28 27 28 30 31 30 29 27 27 24 21 22 26 27 28 29 30 30 29 28 28 26 21 17 20 28 28 22 23 27 25 23 23 25 28 32 32 29 26 28 32 33 32 31 30 30 30 29 26 23 22 23 23 24
30 30 30 30 30 29 29 29 30 29 28 27 27 27 27 28 27 27 27 28 27 26 25 26 26 25 24 23 24 23 22 25 28 29 30 30 28 24 22 23 24 21 16 15 18 24 24 21 24 29 28 25 26 29 30 28 26 26 27 29 31 31 30 31 32 32 31 29 27 24 24 25 24 23
33 33 33 32 32 31 31 31 31 30 30 29 28 28 28 28 27 25 24 23 25 26 24 23 22 22 22 23 24 25 27 28 28 29 30 28 24 20 19 20 20 19 18 17 14 18 22 22 23 29 33 32 30 29 28 26 26 27 27 27 29 29 31 32 32 33 32 31 29 28 27 27 24 22
34 34 34 33 33 33 32 32 32 32 32 31 30 29 28 27 27 25 22 20 20 22 22 22 23 23 24 25 27 29 30 29 27 28 28 24 22 21 22 22 19 16 15 14 13 18 22 22 23 27 34 39 38 30 26 27 28 27 27 27 27 28 29 29 30 31 32 31 31 29 27 25 24 24
35 35 35 35 35 34 33 33 34 33 33 32 30 29 27 26 25 22 19 17 17 18 18 19 20 22 22 25 28 29 28 28 27 25 22 20 21 23 24 24 21 17 13 12 16 22 25 26 28 28 29 35 40 36 32 31 31 31 30 28 26 25 26 26 27 29 31 31 31 29 28 26 25 27
35 36 36 36 36 35 34 34 34 34 33 32 30 29 28 26 24 21 18 17 19 22 21 19 20 21 23 26 26 25 23 23 21 19 18 18 20 22 24 25 23 20 16 15 19 26 28 29 31 29 25 27 33 37 37 35 35 33 29 26 25 26 26 26 27 28 30 31 31 30 28 25 23 26
34 34 36 36 36 36 36 35 34 34 33 32 31 30 29 28 27 26 24 23 25 26 27 26 26 27 28 27 23 19 19 18 16 15 16 18 19 21 22 22 20 20 19 19 23 27 29 28 28 28 29 29 31 34 36 36 34 29 25 25 26 26 26 25 26 27 29 30 31 31 30 27 23 23
33 32 32 32 34 35 35 34 33 32 31 31 31 31 31 30 29 29 28 27 27 28 28 28 28 28 27 22 17 16 16 15 14 14 14 17 19 21 21 19 20 23 24 23 23 24 25 26 27 28 31 32 32 32 33 33 31 28 26 26 26 26 27 26 25 25 25 27 31 33 32 30 27 23
30 29 28 28 29 30 30 31 31 29 28 30 31 30 30 29 29 28 28 28 28 28 26 26 26 25 21 15 13 13 12 12 15 16 17 17 19 20 20 21 22 24 24 24 23 22 22 25 26 27 27 29 29 30 29 28 29 29 28 27 26 26 26 25 25 24 22 23 27 29 29 29 29 27
26 25 24 24 24 25 26 27 27 26 26 28 29 29 28 28 28 28 28 28 27 26 24 23 23 22 19 15 12 10 10 13 17 17 17 17 18 19 20 21 22 23 23 23 22 22 22 23 24 24 25 26 26 27 26 27 28 29 28 27 25 23 22 22 22 21 21 24 26 26 27 27 27 28
26 25 24 24 24 24 24 24 24 24 25 26 27 27 27 28 28 27 26 26 24 23 22 22 20 17 14 14 13 11 12 14 15 15 16 17 18 19 21 22 23 22 21 20 20 19 20 21 22 23 23 24 24 24 25 26 27 25 25 26 25 22 21 21 21 20 22 26 27 27 27 26 26 28
30 29 28 27 26 25 25 25 25 25 25 26 26 26 26 26 25 25 25 25 25 23 22 19 14 10 10 13 15 14 13 13 14 14 15 16 18 19 21 21 21 20 18 17 17 17 19 20 21 22 22 22 23 23 23 23 24 22 22 25 26 25 24 23 23 22 23 25 27 28 27 25 26 29
29 30 30 30 30 29 28 28 28 29 28 26 26 26 26 25 22 21 23 25 25 23 19 12 11 13 16 17 16 14 12 12 14 14 15 16 17 18 18 19 18 17 16 16 14 15 18 19 20 23 23 23 24 24 22 20 21 22 23 24 25 26 27 27 26 27 27 28 29 29 26 23 24 27
27 28 30 30 31 32 32 32 32 31 29 28 27 26 25 23 21 22 24 25 25 23 18 15 16 17 15 14 14 12 12 12 14 15 16 16 16 15 14 14 14 14 15 14 13 14 17 19 21 23 24 25 26 25 20 18 18 21 23 24 26 28 30 30 30 31 32 33 34 34 32 29 26 27
28 29 30 30 32 33 33 34 32 27 24 24 23 22 21 20 19 23 27 27 25 24 22 21 20 17 16 17 17 14 13 14 15 16 15 14 12 11 12 11 10 12 13 13 13 15 18 20 21 22 23 25 25 21 16 15 17 20 22 24 27 31 33 32 32 33 32 32 32 32 32 32 31 30
28 30 30 31 31 29 27 26 25 21 20 20 18 19 21 21 19 23 26 23 20 20 19 17 16 15 17 19 17 13 12 12 12 12 12 12 10 10 10 9 9 11 12 12 13 16 19 20 19 21 22 23 22 19 15 15 18 21 23 25 28 32 34 33 33 33 33 31 30 29 28 27 27 27
29 28 25 24 23 22 21 20 19 20 22 22 20 18 20 20 20 19 18 16 15 16 14 11 10 9 8 7 6 6 7 7 6 6 7 9 9 9 9 8 10 11 12 12 14 17 19 18 17 20 23 22 20 18 17 19 22 24 26 28 30 32 33 33 31 31 33 32 31 29 29 27 25 22
30 25 20 18 19 21 21 19 19 23 24 20 17 15 14 16 16 14 14 16 17 15 12 10 11 12 11 10 9 8 7 7 5 4 6 7 8 9 9 9 11 12 12 13 14 15 16 16 16 19 21 20 17 16 18 22 24 24 26 29 31 31 32 33 31 30 31 33 32 31 30 28 26 23
29 23 19 20 23 25 25 23 24 27 25 21 19 17 14 14 14 14 16 18 17 16 14 14 16 19 19 18 17 15 12 10 7 6 6 7 8 10 10 10 11 12 12 13 13 13 14 14 14 16 18 17 16 17 19 21 23 25 27 29 29 28 29 32 33 32 32 33 34 33 31 28 26 25
26 23 23 26 28 29 29 29 28 28 29 27 25 20 17 17 17 17 18 17 15 16 18 17 17 20 19 16 15 14 12 9 6 6 5 5 7 9 10 10 10 10 11 12 12 12 13 12 13 16 17 15 16 19 21 21 23 25 28 29 28 27 28 31 34 36 36 36 36 35 33 29 25 23
26 26 28 30 29 28 29 29 27 28 29 28 22 17 18 20 19 17 17 15 15 16 17 14 14 17 17 14 12 9 7 6 6 5 5 5 7 8 9 11 11 11 12 12 11 12 12 11 13 18 17 15 16 19 20 20 20 22 25 27 27 28 29 31 33 36 38 39 38 37 34 30 26 22
29 29 29 29 28 28 28 27 26 26 26 21 14 11 14 17 17 15 14 13 15 16 13 11 13 14 12 9 8 5 5 6 6 5 5 6 6 7 9 11 11 11 11 11 11 12 13 12 16 20 18 15 16 18 17 17 19 20 22 25 26 27 28 30 32 35 38 39 39 38 36 33 27 22
30 30 29 29 28 27 25 24 24 22 20 17 13 12 12 14 15 15 14 15 16 15 12 10 11 11 7 5 5 5 4 5 5 5 5 6 6 7 10 11 10 10 11 11 11 13 13 14 17 19 17 16 18 19 17 18 21 22 22 24 25 26 27 28 30 33 37 39 38 36 35 33 28 23
27 26 25 23 23 23 22 22 19 15 13 14 14 13 13 14 14 14 15 15 14 12 9 6 7 6 4 4 5 5 4 5 5 5 6 6 6 7 9 10 9 10 12 12 12 13 14 14 16 16 16 16 17 18 18 20 21 22 22 23 23 24 26 28 29 30 34 37 36 35 34 32 29 26
23 21 17 13 12 13 16 18 17 13 12 14 15 14 13 14 13 11 10 9 9 8 8 6 6 6 5 6 6 6 5 5 6 6 6 7 7 8 9 10 11 12 13 13 13 14 14 15 15 15 15 16 16 17 18 19 20 20 21 22 22 22 23 24 26 28 31 32 30 30 30 27 25 24
22 21 18 14 11 11 13 14 14 12 10 10 11 11 11 11 10 9 6 4 5 5 6 7 8 8 7 7 7 6 6 7 9 8 7 7 9 10 10 11 12 13 13 14 14 14 14 15 15 14 14 16 17 16 17 18 18 19 19 20 21 21 20 21 22 24 27 30 29 27 26 24 21 19
23 22 21 18 16 17 19 18 15 12 9 8 8 9 9 8 7 7 8 8 7 7 7 8 9 8 7 8 9 8 7 10 11 10 8 9 11 11 11 12 13 13 13 14 15 15 16 16 16 14 15 16 17 17 17 17 18 19 19 18 19 19 19 20 19 18 21 26 28 26 24 23 22 19
Wind_Direction
225 227 228 230 224 220 225 227 234 241 241 243 248 251 254 256 261 272 283 287 271 269 270 249 252 279 304 310 298 297 303 298 301 305 301 298 297 296 295 292 288 288 290 291 292 292 292 291 291 291 291 291 291 291 291 290 290 290 290 290 290 289 289 289 289 289 290 290 290 291 292 293 295 296
221 222 226 233 235 233 235 235 238 248 257 264 259 254 258 261 264 265 273 279 270 270 280 269 277 297 303 300 294 294 297 294 294 293 289 289 291 291 292 291 289 288 288 288 290 291 291 291 291 291 291 291 291 291 290 290 289 289 288 288 288 287 287 287 287 287 287 288 287 287 287 288 289 290
224 223 221 224 228 233 236 234 235 246 260 273 266 253 256 266 271 270 272 276 261 246 266 270 279 295 297 295 286 277 278 283 289 289 284 284 286 287 287 288 290 291 291 290 290 290 290 291 291 291 291 291 290 290 289 289 288 287 287 286 285 285 284 284 285 284 284 284 284 284 284 284 284 285
227 230 228 228 229 232 236 236 233 237 251 264 262 254 257 269 279 277 275 276 271 258 262 266 265 271 279 282 277 273 274 279 285 287 284 283 284 284 284 287 289 291 292 292 291 291 291 290 290 290 289 289 289 288 288 287 286 285 285 284 283 282 281 281 281 281 281 281 281 281 281 280 280 281
229 233 232 233 236 237 241 242 239 237 249 260 262 259 260 263 269 274 275 279 283 284 284 283 281 276 272 272 273 278 284 288 289 290 289 288 288 287 289 291 293 294 295 295 294 293 292 291 290 289 288 287 287 286 286 285 284 283 282 282 281 279 278 278 277 276 277 278 278 277 277 277 277 277
230 234 234 235 239 242 243 245 242 238 243 253 258 262 265 259 254 260 268 276 285 291 294 294 292 291 287 284 285 290 294 296 295 295 295 295 295 295 297 297 298 299 300 300 299 298 296 293 291 289 287 287 286 285 284 283 282 281 280 279 279 278 276 275 274 273 273 273 274 275 274 274 274 274
238 237 238 237 238 241 244 246 246 240 239 244 247 251 256 257 254 254 261 271 282 289 293 293 290 289 287 285 288 293 295 296 297 297 297 296 295 296 298 299 300 302 302 302 302 301 299 296 294 292 290 287 286 284 283 282 281 280 279 278 277 276 275 273 272 272 271 270 271 272 272 271 271 272
245 241 240 239 237 236 240 245 246 244 242 243 246 249 252 257 261 263 262 268 279 287 291 293 294 292 290 290 292 291 291 292 293 293 295 294 292 292 293 294 297 300 301 302 302 302 302 301 299 296 293 289 287 285 284 282 282 280 279 278 277 276 275 274 273 271 270 268 268 268 269 270 269 269
244 242 240 241 239 235 237 243 246 245 245 246 249 252 254 258 266 272 275 277 282 286 289 293 297 297 297 298 298 296 294 292 292 294 295 293 292 292 291 290 292 296 300 301 301 302 304 307 308 306 301 296 292 291 290 288 287 285 284 282 280 278 277 276 275 274 272 269 267 265 265 267 267 267
243 244 242 241 240 237 236 240 245 246 248 251 253 254 257 259 263 272 280 286 288 287 289 293 296 298 299 298 299 300 298 294 295 297 298 298 300 299 295 292 293 295 297 296 294 298 304 307 308 308 307 306 303 300 299 298 296 293 290 288 286 284 282 280 279 278 276 273 269 266 264 263 264 265
242 243 244 243 241 241 242 243 245 247 250 253 256 259 263 266 270 276 280 282 283 284 286 289 289 293 294 291 292 296 296 294 294 293 297 300 303 301 295 296 299 300 300 299 296 299 304 304 305 308 310 312 312 310 310 311 309 304 298 294 291 289 286 284 283 282 281 278 275 270 266 263 261 262
239 238 241 244 243 244 247 250 249 245 246 251 256 261 266 269 273 278 278 276 277 278 280 280 280 282 283 284 289 292 291 291 290 291 294 296 300 302 299 299 302 305 308 308 304 301 305 307 308 310 313 315 316 315 314 315 316 316 311 304 299 294 288 284 282 281 280 279 278 275 270 265 261 260
238 236 238 238 241 245 250 256 257 249 244 249 254 260 266 269 272 276 278 278 279 279 278 278 277 276 277 282 287 287 284 284 287 292 294 294 297 301 297 295 300 306 309 306 299 300 306 306 305 306 309 313 315 314 314 317 323 327 323 317 311 303 293 286 281 279 278 276 274 273 271 267 263 260
237 239 241 240 240 243 245 251 257 257 254 255 257 259 263 268 272 275 277 279 279 279 279 279 276 271 272 276 278 278 279 283 289 294 294 294 294 293 293 295 299 305 307 301 294 300 307 306 304 303 302 305 311 316 318 320 325 328 326 323 319 312 304 297 289 283 280 278 274 270 268 266 263 260
241 241 243 244 244 244 246 251 257 260 260 259 261 262 264 268 272 274 276 277 277 276 277 277 273 270 272 274 274 277 281 285 290 292 290 289 289 291 295 298 302 309 312 304 298 302 308 308 304 303 301 303 313 321 325 325 325 324 323 322 322 319 315 311 303 293 285 281 278 273 268 264 262 259
247 247 247 244 243 244 249 256 260 259 258 260 263 266 267 268 270 271 273 275 275 276 277 277 276 274 273 274 274 278 283 285 286 285 285 287 291 295 297 300 305 310 309 304 301 304 309 309 300 300 302 306 313 321 326 328 327 325 321 318 319 321 320 318 314 308 298 287 281 276 271 265 262 259
250 252 251 248 245 243 246 255 261 262 261 262 265 267 269 269 269 271 274 275 277 278 277 278 279 279 278 279 280 282 284 283 281 282 286 289 293 297 300 302 303 301 301 303 304 307 315 317 305 303 305 304 309 316 320 323 325 325 321 317 319 321 321 319 316 314 311 302 288 279 274 269 264 260
247 251 253 252 251 249 250 255 261 264 266 268 270 271 273 273 273 274 275 275 277 278 277 277 280 281 281 281 283 285 287 286 284 285 289 291 294 299 300 299 298 299 304 311 310 310 319 324 313 309 310 307 306 307 309 315 321 322 320 319 321 321 320 318 316 314 313 311 303 290 278 272 268 262
243 249 252 254 254 254 254 256 259 263 266 269 273 275 277 278 279 279 279 279 278 278 277 277 280 284 286 285 284 284 284 283 284 285 287 290 296 301 300 299 302 307 315 320 311 308 315 320 310 306 309 308 305 306 309 313 318 320 318 316 317 319 318 316 315 313 311 311 311 305 293 283 275 267
244 249 252 254 256 256 256 257 259 262 264 266 269 272 275 277 278 279 280 282 283 280 278 279 284 286 287 286 286 286 284 284 288 290 291 295 301 300 296 300 307 310 310 311 304 300 303 308 308 309 312 311 309 314 319 319 317 316 313 311 312 314 314 313 311 311 311 310 309 308 305 301 293 280
247 250 252 254 256 257 257 258 260 262 264 265 266 267 269 271 271 271 271 275 279 282 283 286 289 289 288 287 287 287 287 290 295 297 297 301 303 297 293 299 304 304 310 319 314 298 299 307 311 314 317 316 315 318 319 317 315 315 314 313 311 310 309 308 307 308 309 308 306 304 304 305 303 295
247 251 254 255 255 256 257 259 262 263 264 266 267 267 268 268 267 267 266 265 271 280 286 287 285 285 286 285 284 284 285 288 293 295 297 300 298 293 295 301 302 302 314 324 315 301 304 311 313 315 318 319 320 319 316 315 318 319 318 315 310 306 306 306 307 307 307 306 305 302 302 303 302 297
247 250 253 255 256 257 258 259 262 264 265 267 268 268 268 266 264 263 263 261 261 267 273 278 279 278 276 276 278 280 281 285 288 289 290 293 292 292 296 300 301 304 309 308 299 300 306 312 314 317 318 317 320 322 321 320 321 322 321 320 316 314 312 310 309 307 305 304 303 301 301 300 295 292
248 250 252 254 256 256 257 259 261 263 265 266 266 266 264 262 260 258 251 245 245 246 246 252 262 269 270 272 276 281 289 297 298 291 285 284 284 286 291 294 296 300 302 298 297 302 308 311 315 318 315 310 313 319 321 322 325 327 326 324 321 318 315 312 310 307 305 304 303 303 304 302 293 287
246 249 252 254 256 256 256 257 258 260 261 262 262 262 260 258 257 255 248 240 240 242 243 245 251 260 267 272 278 287 297 301 299 295 292 288 283 283 288 292 295 296 297 299 302 308 313 316 317 318 317 314 313 315 319 322 327 328 324 320 319 317 316 316 314 312 312 310 306 305 307 306 297 287
246 246 249 252 255 257 258 258 257 258 258 258 259 260 260 259 258 256 252 248 245 245 246 247 251 258 268 277 283 286 284 279 272 272 275 277 281 286 289 291 293 296 301 307 313 317 318 319 319 319 318 317 316 315 316 319 322 322 320 320 320 317 316 317 314 310 310 309 307 307 308 307 301 292
246 245 244 247 250 255 257 257 258 257 255 255 257 258 257 256 254 253 252 251 251 251 250 252 257 263 270 276 278 277 273 268 266 268 270 273 280 287 290 290 293 300 309 317 322 323 320 319 320 319 314 311 311 312 313 314 318 321 321 321 320 319 322 324 321 317 314 313 312 312 311 307 302 297
241 240 239 240 244 248 252 255 256 253 249 249 251 251 250 249 249 249 250 252 255 256 255 256 261 267 271 270 267 264 259 257 261 269 278 282 285 290 296 301 307 315 320 323 323 322 321 318 315 313 311 308 308 311 312 314 318 321 323 325 326 327 328 327 324 322 322 320 318 316 312 307 303 300
231 231 233 234 236 239 245 249 250 247 243 241 242 243 243 244 245 247 249 252 254 255 257 262 265 268 270 267 260 256 258 262 266 274 282 288 295 304 311 315 319 322 322 323 324 321 317 313 312 314 316 316 316 317 316 318 320 322 325 328 328 328 327 325 322 318 317 316 314 311 310 307 304 300
226 225 228 231 233 234 238 243 246 245 240 237 239 240 241 242 245 247 249 250 250 253 259 263 258 249 250 255 258 262 268 271 274 282 293 303 311 316 318 318 319 322 323 326 325 318 315 316 319 323 325 324 325 325 322 320 321 325 329 328 325 325 324 321 316 311 307 306 305 305 304 303 301 299
226 226 227 228 231 234 236 240 246 246 240 236 237 239 241 241 241 243 246 248 250 251 252 248 241 245 252 256 261 270 276 279 285 296 310 317 318 318 317 318 321 325 328 329 322 315 319 325 328 332 333 332 331 331 329 327 326 329 330 325 321 322 320 314 307 302 298 295 296 297 298 298 303 303
225 227 229 229 231 233 235 239 243 243 239 236 236 237 238 237 234 236 241 247 249 249 249 250 253 255 254 253 259 268 275 286 300 310 315 318 319 320 321 325 328 325 323 325 323 320 325 331 337 341 341 338 335 335 337 335 331 329 328 324 321 325 328 324 317 311 306 301 297 295 293 292 297 303
225 227 229 230 230 231 233 235 237 237 237 236 234 232 232 231 231 236 241 246 252 256 257 256 253 249 249 255 263 270 282 296 308 313 316 322 326 331 337 338 326 314 318 329 332 329 332 340 345 344 340 337 338 338 338 337 334 331 330 330 329 333 338 339 334 329 326 320 314 308 301 294 292 294
223 226 229 230 228 228 228 229 229 229 232 232 229 229 230 228 228 237 243 245 248 254 254 247 242 244 248 254 260 264 279 298 307 309 317 333 343 347 351 339 313 314 330 338 335 334 340 346 345 338 337 341 342 338 332 333 335 336 336 336 335 336 342 346 345 342 342 338 332 325 318 311 304 298
220 222 226 227 224 222 223 223 220 221 228 231 229 227 229 229 229 235 239 231 224 234 239 236 241 255 256 248 244 249 271 295 303 297 312 333 345 349 348 335 327 340 349 343 337 340 345 347 341 335 339 344 343 336 329 328 332 337 338 337 337 339 345 351 353 353 351 348 343 336 328 323 319 311
218 217 219 221 220 219 220 218 216 221 226 228 224 219 224 230 224 216 215 212 211 219 232 248 263 271 270 265 263 270 292 310 311 303 313 326 333 341 346 342 341 349 352 345 343 344 343 343 340 338 341 344 341 336 330 328 334 338 337 334 336 340 347 354 0 2 360 355 352 347 338 328 321 314
215 215 218 221 219 218 217 214 216 221 223 220 220 223 222 221 215 212 219 224 220 217 227 247 257 255 254 260 267 274 289 302 303 307 321 328 328 333 342 344 341 345 348 347 345 343 341 343 342 341 343 343 339 335 332 333 337 337 332 331 335 340 349 356 0 4 4 0 356 351 343 334 326 317
214 215 219 221 218 218 219 218 218 222 224 224 229 233 226 219 223 229 232 228 220 216 220 229 237 239 243 254 264 269 278 286 292 307 323 327 320 325 336 341 340 344 348 345 340 338 341 345 342 340 345 348 343 336 332 335 338 334 330 331 334 338 348 357 359 358 359 358 355 351 346 339 330 322
213 216 220 223 222 221 222 223 223 223 225 226 228 226 219 217 218 220 217 209 205 212 216 216 224 233 240 247 254 262 271 274 282 301 315 316 316 321 327 332 338 348 349 342 335 336 344 348 343 344 349 351 341 334 330 330 334 332 330 332 335 339 346 354 356 356 356 353 350 348 348 344 336 330
215 219 221 224 225 223 222 223 223 221 222 222 212 201 209 212 207 204 205 204 207 212 209 209 223 234 240 244 247 252 267 277 286 298 305 310 314 311 314 328 343 348 338 330 330 338 343 341 339 346 354 350 337 333 333 331 332 333 334 336 337 340 345 350 351 352 353 351 347 345 347 347 343 340
218 220 223 226 226 223 219 217 216 214 215 209 190 179 193 200 197 198 203 208 216 216 206 210 231 238 234 237 242 239 251 270 282 289 294 302 306 306 316 332 344 338 327 325 328 332 333 331 333 343 351 345 336 336 339 337 336 338 341 342 341 342 345 348 348 349 350 349 348 348 349 350 349 346
216 219 221 221 218 213 208 206 204 199 194 189 184 186 195 195 193 198 204 210 219 216 200 215 253 251 219 227 247 248 250 261 271 279 288 298 303 306 314 321 323 321 324 326 323 321 325 328 331 336 337 334 334 336 337 336 337 338 341 343 343 344 347 347 343 344 347 350 351 353 355 355 353 350
208 204 197 187 184 189 194 198 196 188 182 188 195 202 205 202 203 210 214 224 230 212 189 205 245 245 227 234 247 251 251 258 268 273 276 285 295 301 303 304 306 310 316 319 318 319 322 324 327 329 328 327 331 333 330 331 335 337 338 341 342 344 349 347 338 334 341 350 356 359 1 2 359 353
188 182 171 159 156 161 165 174 184 182 173 175 184 190 193 200 208 210 209 232 244 216 196 212 229 230 229 235 245 257 260 253 256 266 274 281 289 295 297 299 302 305 308 312 315 316 318 320 322 325 325 324 326 328 327 329 333 333 333 336 340 342 347 346 337 331 338 351 0 5 7 9 10 7
177 178 176 176 176 170 163 162 164 160 150 150 160 167 172 182 195 199 204 218 224 209 204 220 228 230 237 239 238 246 256 255 257 269 282 282 283 290 294 295 299 302 303 306 311 313 314 316 316 317 320 321 321 322 322 323 327 329 328 328 333 337 341 344 343 340 343 351 360 8 12 14 17 21